Dewpoint
73 71 67 69 67 65 65 67 71 72 72 73 73 73 72 69 68 72 72 71 72 68
73 73 69 71 71 67 70 68 71 73 73 73 72 73 72 68 70 71 71 71 72 69
71 73 72 72 73 71 72 71 72 73 72 71 71 73 73 70 70 71 69 67 72 72
70 71 72 70 72 71 70 71 71 74 72 73 70 71 72 72 70 70 70 70 71 71
71 71 70 71 70 72 71 71 74 73 73 73 72 73 71 70 68 69 69 70 70 70
70 71 71 71 72 71 73 73 72 73 73 70 70 72 71 71 70 70 69 69 70 70
71 71 70 71 73 72 73 73 72 74 71 70 70 71 70 71 71 70 69 70 71 71
72 73 73 72 73 72 73 73 73 73 72 71 71 69 72 72 71 73 72 71 72 72
73 73 74 74 75 74 74 73 73 73 72 71 68 63 64 69 71 72 72 72 72 73
73 72 73 73 73 73 73 71 72 73 73 72 72 61 63 66 71 72 72 72 73 72
70 70 71 71 72 71 72 73 73 72 72 71 67 60 62 67 71 71 70 70 70 71
70 70 70 70 70 70 70 70 70 71 70 69 66 58 60 65 69 69 69 67 66 69
69 68 68 69 69 68 68 66 65 64 64 61 65 57 57 64 68 68 65 65 63 57
69 69 68 68 66 64 63 61 60 59 60 59 57 61 56 58 67 65 64 62 60 59
Lifted_Index
-4 -4 -3 -3 -3 -3 -3 -3 -4 -4 -5 -5 -5 -5 -4 -4 -4 -4 -5 -5 -5 -4
-4 -4 -3 -3 -3 -3 -3 -4 -4 -5 -5 -5 -5 -5 -4 -4 -4 -4 -4 -4 -4 -4
-4 -4 -4 -4 -4 -4 -4 -4 -4 -5 -5 -4 -4 -4 -4 -4 -4 -3 -4 -4 -4 -4
-4 -5 -5 -5 -4 -4 -4 -3 -4 -5 -5 -4 -4 -4 -4 -4 -3 -3 -3 -3 -4 -4
-5 -5 -5 -5 -4 -4 -4 -4 -4 -5 -5 -4 -4 -4 -4 -4 -3 -3 -3 -3 -4 -4
-5 -5 -5 -5 -5 -4 -4 -4 -4 -4 -4 -4 -4 -4 -4 -4 -4 -3 -3 -3 -4 -4
-5 -5 -5 -5 -5 -5 -5 -5 -5 -4 -4 -3 -3 -4 -4 -4 -4 -4 -3 -4 -4 -4
-5 -5 -5 -5 -5 -5 -5 -5 -5 -4 -4 -3 -3 -3 -3 -4 -4 -4 -4 -4 -4 -4
-5 -5 -5 -5 -5 -5 -5 -5 -4 -4 -4 -4 -3 -3 -2 -3 -4 -4 -4 -4 -4 -4
-4 -4 -4 -5 -5 -5 -4 -4 -4 -4 -4 -4 -3 -2 -1 -2 -3 -3 -3 -3 -4 -4
-3 -3 -3 -4 -4 -4 -4 -3 -3 -3 -3 -3 -2 -1 -1 -1 -2 -2 -2 -2 -2 -2
-2 -2 -2 -2 -2 -2 -2 -2 -2 -2 -2 -2 -1 -1 -1 -1 -1 -1 -1 -1 -1 -1
-1 -1 -1 -1 -1 -1 -1 -1 -1 -1 -1 -1 -0 -0 -0 -0 -1 -0 0 0 0 0
-0 -0 -0 -0 -0 0 0 -0 -0 -0 -0 0 0 0 0 -0 -0 0 1 1 1 1